This is the latest recevied weather packets stored in our database for station/object DAX207-13. If no packets are shown the sender has not sent any weather packets the latest 10 day(s).
| Time | Temp. | Humidity | Pressure | Rain* | Wind** | Luminosity | Snow |
|---|---|---|---|---|---|---|---|
| 1788322224 | 13.33° C | 91% | 1021.4 hPa | 0 mm | - | 0 W/m² | - |
| 1788321624 | 13.33° C | 90% | 1021.3 hPa | 0 mm | - | 0 W/m² | - |
| 1788321024 | 13.33° C | 91% | 1021.3 hPa | 0 mm | - | 0 W/m² | - |
| 1788320424 | 12.78° C | 92% | 1021.1 hPa | 0 mm | - | 0 W/m² | - |
| 1788319824 | 12.78° C | 93% | 1021.4 hPa | 0 mm | - | 0 W/m² | - |
| 1788319224 | 12.22° C | 93% | 1021.3 hPa | 0 mm | - | 0 W/m² | - |
| 1788318624 | 12.22° C | 92% | 1021.4 hPa | 0 mm | - | 0 W/m² | - |
| 1788318024 | 12.78° C | 92% | 1021.5 hPa | 0 mm | - | 0 W/m² | - |
| 1788317424 | 12.78° C | 92% | 1021.5 hPa | 0 mm | - | 0 W/m² | - |
| 1788316824 | 12.78° C | 93% | 1021.7 hPa | 0 mm | - | 0 W/m² | - |
| 1788316224 | 12.78° C | 92% | 1021.6 hPa | 0 mm | - | 0 W/m² | - |
| 1788315624 | 12.78° C | 92% | 1021.5 hPa | 0 mm | - | 0 W/m² | - |
| 1788315024 | 12.78° C | 92% | 1021.7 hPa | 0 mm | - | 0 W/m² | - |
| 1788314424 | 12.78° C | 91% | 1021.7 hPa | 0 mm | - | 0 W/m² | - |
| 1788313824 | 13.33° C | 90% | 1021.7 hPa | 0 mm | - | 0 W/m² | - |
| 1788313224 | 13.33° C | 89% | 1021.7 hPa | 0 mm | - | 0 W/m² | - |
| 1788312624 | 13.33° C | 89% | 1021.6 hPa | 0 mm | - | 0 W/m² | - |
| 1788312024 | 13.33° C | 89% | 1021.4 hPa | 0 mm | - | 0 W/m² | - |
| 1788311424 | 13.33° C | 88% | 1021.5 hPa | 0 mm | - | 0 W/m² | - |
| 1788310824 | 13.89° C | 88% | 1021.3 hPa | 0 mm | - | 0 W/m² | - |
| 1788310224 | 13.89° C | 88% | 1021.5 hPa | 0 mm | - | 0 W/m² | - |
| 1788309624 | 13.33° C | 89% | 1021.5 hPa | 0 mm | - | 0 W/m² | - |
| 1788309024 | 12.78° C | 91% | 1021.5 hPa | 0 mm | - | 0 W/m² | - |
| 1788308424 | 12.78° C | 91% | 1021.8 hPa | 0 mm | - | 0 W/m² | - |
| 1788307824 | 13.33° C | 91% | 1021.8 hPa | 0 mm | - | 0 W/m² | - |
* Rain latest hour (hover to see other rain measurements)
** Current wind speed in m/s (hover to see current wind gust speed)